Location: Newark
(34.0131°N, 4.3314°W)
Time: 08:16:56
(UTC+00:00)

Explorer 11/Cluster Stage 4 - Pass Details

Date: 25 October 2019
Orbit: 467 x 1259 km, 28.8° (Epoch: 11 November)

Event Time Altitude Azimuth Distance (km) Brightness Sun altitude
Rises 11:19:41 0° 262° (W) 2,483 9.1 42.8°
Reaches altitude 10° 11:22:14 10° 243° (WSW) 1,618 8.5 43.0°
Maximum altitude 11:24:52 19° 196° (SSW) 1,207 8.7 43.1°
Drops below altitude 10° 11:27:40 10° 150° (SSE) 1,725 9.3 43.2°
Sets 11:30:31 0° 132° (SE) 2,716 9.9 43.3°
